CDT,Max TemperatureF,Mean TemperatureF,Min TemperatureF,Max Dew PointF,MeanDew PointF,Min DewpointF,Max Humidity, Mean Humidity, Min Humidity, Max Sea Level PressureIn, Mean Sea Level PressureIn, Min Sea Level PressureIn, Max VisibilityMiles, Mean VisibilityMiles, Min VisibilityMiles, Max Wind SpeedMPH, Mean Wind SpeedMPH, Max Gust SpeedMPH,PrecipitationIn, CloudCover, Events, WindDirDegrees
2013-4-1,50,40,29,36,25,21,86,64,36,30.32,30.24,30.01,10,10,10,37,18,44,0.00,2,,59
2013-4-2,50,41,31,29,24,20,89,56,33,30.32,30.27,30.22,10,10,10,9,4,18,0.00,7,,171
2013-4-3,51,42,33,32,28,21,85,61,34,30.32,30.27,30.24,10,10,10,16,5,23,0.00,4,,176
2013-4-4,67,47,27,36,31,27,100,73,26,30.25,30.16,30.07,10,8,0,9,5,,0.00,2,Fog,219
2013-4-5,79,59,38,42,36,30,82,50,19,30.10,29.86,29.62,10,10,10,29,11,45,0.00,0,,189
2013-4-6,76,61,46,33,31,28,50,33,19,29.83,29.74,29.57,10,10,10,24,11,33,0.00,0,,302
2013-4-7,79,63,46,48,40,34,93,47,24,29.81,29.68,29.52,10,10,10,23,8,32,T,3,Thunderstorm,169
2013-4-8,75,62,48,61,52,45,100,89,51,29.68,29.60,29.43,10,5,0,24,5,32,0.00,7,Fog,120
2013-4-9,67,45,22,61,28,18,100,90,78,30.19,29.86,29.41,10,6,1,31,22,40,0.04,8,Rain-Snow,352
2013-4-10,30,26,22,25,21,18,89,82,72,30.16,30.08,29.96,10,10,10,24,20,32,T,8,,332
2013-4-11,50,35,20,26,23,18,93,72,33,30.02,29.89,29.76,10,9,1,24,12,30,0.00,2,Snow,316
2013-4-12,61,43,24,35,27,21,89,63,29,30.07,29.98,29.93,10,10,10,18,8,25,T,3,,316
2013-4-13,72,49,25,46,36,27,96,62,34,30.06,29.76,29.32,10,10,10,23,9,33,0.00,0,,181
2013-4-14,65,49,33,45,27,13,72,38,14,29.77,29.49,29.21,10,10,9,30,20,50,0.00,3,,299
2013-4-15,54,43,32,28,22,17,65,46,25,30.03,29.90,29.75,10,10,10,15,8,24,0.00,4,,35
2013-4-16,47,41,34,28,25,22,68,54,39,30.19,30.11,30.04,10,10,10,22,14,28,0.00,8,,72
2013-4-17,41,36,30,36,33,27,100,89,57,30.06,29.95,29.85,10,6,1,29,14,39,0.09,8,Rain-Snow-Thunderstorm,16
2013-4-18,38,33,27,30,25,21,100,83,55,30.17,30.02,29.92,10,4,1,31,23,41,0.02,7,Rain-Snow,331
2013-4-19,61,43,24,30,25,19,82,58,31,30.14,30.08,30.01,10,10,10,23,12,31,0.00,2,,313
2013-4-20,64,47,29,38,31,26,89,61,32,30.10,30.02,29.93,10,10,10,20,10,30,0.00,3,,105
2013-4-21,73,53,33,40,34,30,93,50,22,30.06,30.00,29.94,10,10,9,17,6,32,T,1,Rain,182
2013-4-22,55,43,30,52,41,26,100,89,69,30.31,30.03,29.88,10,7,0,31,11,45,0.08,8,Fog-Rain-Snow-Thunderstorm,28
2013-4-23,41,33,24,28,25,20,100,82,45,30.35,30.27,30.22,10,5,1,25,18,33,0.01,7,Snow,4
2013-4-24,64,43,22,28,22,15,88,52,16,30.31,30.23,30.14,10,10,10,21,8,30,0.00,0,,282
2013-4-25,73,49,25,31,24,18,92,46,13,30.27,30.13,29.97,10,10,10,29,7,40,0.00,0,,188
2013-4-26,75,59,42,51,41,30,93,52,31,30.17,30.03,29.95,10,10,8,21,10,28,T,2,,174
2013-4-27,78,57,35,48,40,36,100,76,24,30.19,30.10,29.94,10,5,0,14,3,20,0.00,1,Fog,205
2013-4-28,93,70,47,47,35,18,89,41,7,29.93,29.77,29.63,10,10,10,15,7,23,0.00,0,,265
2013-4-29,86,67,47,46,41,37,68,46,19,29.76,29.64,29.50,10,10,9,14,6,20,0.00,0,,64
2013-4-30,80,67,53,51,44,39,59,45,36,29.74,29.60,29.47,10,10,10,25,13,33,0.00,0,,63